Change the Weather History Date:

Wednesday, April 11, 2012

  Actual Average Record
Temperature  
Mean Temperature 57 °F 61 °F  
Max Temperature 70 °F 73 °F 86 °F (1906)
Min Temperature 44 °F 49 °F 26 °F (1973)
Degree Days  
Heating Degree Days 8 6  
Month to date heating degree days 18 71  
Since 1 July heating degree days 1872 2583  
Cooling Degree Days 0 2  
Month to date cooling degree days 32 15  
Year to date cooling degree days 158 37  
Growing Degree Days 7 (Base 50)    
Moisture  
Dew Point 35 °F    
Average Humidity 61    
Maximum Humidity 100    
Minimum Humidity 22    
Precipitation  
Precipitation 0.00 in 0.15 in 2.80 in (1900)
Month to date precipitation 0.40 1.67  
Year to date precipitation 13.98 16.27  
Snow  
Snow 0.00 in 0.00 in - ()
Month to date snowfall 0.0 0.1  
Since 1 July snowfall T 1.5  
Snow Depth 0.00 in    
Sea Level Pressure  
Sea Level Pressure 30.13 in    
Wind  
Wind Speed 6 mph (North)    
Max Wind Speed 18 mph    
Max Gust Speed 25 mph    
Visibility 10 miles    
Events      
T = Trace of Precipitation, MM = Missing Value Source: NWS Daily Summary

Daily Weather History Graph

Daily Weather History Graph

Search for Another Location

Airport or City:

Trip Planner

Search our weather history database for the weather conditions in past years. The results will help you decide how hot, cold, wet, or windy it might be!

Date:

Astronomy

Apr. 11, 2012 Rise Set
Actual Time 6:20 AM CDT 7:15 PM CDT
Civil Twilight 5:55 AM CDT 7:40 PM CDT
Nautical Twilight 5:25 AM CDT 8:10 PM CDT
Astronomical Twilight 4:54 AM CDT 8:41 PM CDT
Moon No Moon Rise 10:19 AM CDT (4/11)
Length of Visible Light 13h 45m
Length of Day
12h 54m
Waning Gibbous, 69% of the Moon is Illuminated
Apr 11
Waning Gibbous
Apr 13
Last Quarter
Apr 21
New
Apr 29
First Quarter
May 5
Full

Hourly Weather History & Observations

Time (CDT) Temp. Windchill Dew Point Humidity Pressure Visibility Wind Dir Wind Speed Gust Speed Precip Events Conditions
12:53 AM 54.0 °F - 51.1 °F 90% 30.08 in 10.0 mi Calm Calm - N/A   Clear
1:53 AM 52.0 °F - 51.1 °F 97% 30.07 in 10.0 mi Calm Calm - N/A   Clear
2:53 AM 51.1 °F - 46.0 °F 83% 30.07 in 10.0 mi Calm Calm - N/A   Clear
3:53 AM 48.0 °F - 43.0 °F 83% 30.09 in 10.0 mi Calm Calm - N/A   Clear
4:53 AM 48.0 °F - 44.1 °F 86% 30.11 in 10.0 mi Calm Calm - N/A   Clear
5:53 AM 45.0 °F 43.5 °F 41.0 °F 86% 30.12 in 10.0 mi North 3.5 mph - N/A   Clear
6:53 AM 46.0 °F 44.8 °F 43.0 °F 89% 30.15 in 10.0 mi NE 3.5 mph - N/A   Clear
7:53 AM 48.9 °F - 41.0 °F 74% 30.16 in 10.0 mi Calm Calm - N/A   Clear
8:53 AM 55.0 °F - 33.1 °F 43% 30.17 in 10.0 mi NNE 9.2 mph - N/A   Clear
9:53 AM 59.0 °F - 30.0 °F 33% 30.18 in 10.0 mi NNE 10.4 mph - N/A   Clear
10:53 AM 61.0 °F - 28.9 °F 30% 30.18 in 10.0 mi North 12.7 mph - N/A   Clear
11:53 AM 63.0 °F - 28.0 °F 27% 30.17 in 10.0 mi North 9.2 mph 17.3 mph N/A   Clear
12:53 PM 64.9 °F - 26.1 °F 23% 30.16 in 10.0 mi North 12.7 mph 20.7 mph N/A   Clear
1:53 PM 66.9 °F - 28.9 °F 24% 30.14 in 10.0 mi NW 13.8 mph 20.7 mph N/A   Clear
2:53 PM 68.0 °F - 28.9 °F 23% 30.11 in 10.0 mi NW 12.7 mph 18.4 mph N/A   Clear
3:53 PM 69.1 °F - 28.0 °F 22% 30.10 in 10.0 mi NW 11.5 mph 19.6 mph N/A   Clear
4:53 PM 66.9 °F - 30.9 °F 26% 30.10 in 10.0 mi North 11.5 mph - N/A   Clear
5:53 PM 64.9 °F - 30.9 °F 28% 30.10 in 10.0 mi North 11.5 mph - N/A   Clear
6:53 PM 60.1 °F - 32.0 °F 35% 30.10 in 10.0 mi North 6.9 mph - N/A   Clear
7:53 PM 55.9 °F - 32.0 °F 40% 30.11 in 10.0 mi North 4.6 mph - N/A   Clear
8:53 PM 50.0 °F - 37.0 °F 61% 30.14 in 10.0 mi North 5.8 mph - N/A   Clear
9:53 PM 53.1 °F - 30.0 °F 41% 30.15 in 10.0 mi NNE 5.8 mph - N/A   Clear
10:53 PM 52.0 °F - 30.0 °F 43% 30.17 in 10.0 mi NNE 6.9 mph - N/A   Clear
11:53 PM 46.9 °F - 34.0 °F 61% 30.19 in 10.0 mi Calm Calm - N/A   Clear